When you browse on this site, cookies collect data to enhance your experience and personalize the content and advertising you see.
Visit our Privacy Policy to learn more. By continuing to use the site, you agree to this use of cookies and data.
  • In Österreich
  • Länderverzeichnis
  • Für 7 Tage
  • Wassertemperatur
  • Wetterkarte
  • News
  • Widgets
  • user-avatar
    Anmelden

    Stündliche Wetter Kiel

    Heute, 29 Mai, Freitag

    Zeit Temperatur Niederschläge Wind Luftdruck Luftfeuchtigkeit
    00:00 +8°C° 0 mm 2 m/S 772 mmHg 91%
    01:00 +7°C° 0 mm 2 m/S 772 mmHg 94%
    02:00 +7°C° 0 mm 2 m/S 772 mmHg 94%
    03:00 +7°C° 0 mm 2 m/S 772 mmHg 94%
    04:00 +7°C° 0 mm 2 m/S 772 mmHg 95%
    05:00 +8°C° 0 mm 2 m/S 772 mmHg 92%
    06:00 +10°C° 0 mm 2 m/S 772 mmHg 88%
    07:00 +13°C° 0 mm 2 m/S 772 mmHg 85%
    08:00 +14°C° 0 mm 2 m/S 772 mmHg 78%
    09:00 +16°C° 0 mm 1 m/S 772 mmHg 71%
    10:00 +18°C° 0 mm 1 m/S 772 mmHg 63%
    11:00 +19°C° 0 mm 1 m/S 772 mmHg 61%
    12:00 +18°C° 0 mm 2 m/S 772 mmHg 58%
    13:00 +19°C° 0 mm 2 m/S 771 mmHg 56%
    14:00 +18°C° 0 mm 2 m/S 771 mmHg 58%
    15:00 +18°C° 0 mm 2 m/S 771 mmHg 60%
    16:00 +18°C° 0 mm 3 m/S 770 mmHg 62%
    17:00 +17°C° 0 mm 2 m/S 770 mmHg 65%
    18:00 +16°C° 0 mm 2 m/S 770 mmHg 68%
    19:00 +15°C° 0 mm 2 m/S 770 mmHg 71%
    20:00 +13°C° 0 mm 2 m/S 770 mmHg 72%
    21:00 +11°C° 0 mm 1 m/S 770 mmHg 74%
    22:00 +9°C° 0 mm 1 m/S 770 mmHg 75%
    23:00 +9°C° 0 mm 1 m/S 770 mmHg 78%

    Morgen, 30 Mai, Samstag

    Zeit Temperatur Niederschläge Wind Luftdruck Luftfeuchtigkeit
    00:00 +8°C° 0 mm 1 m/S 770 mmHg 80%
    01:00 +8°C° 0 mm 1 m/S 770 mmHg 82%
    02:00 +8°C° 0 mm 1 m/S 770 mmHg 83%
    03:00 +8°C° 0 mm 1 m/S 770 mmHg 84%
    04:00 +8°C° 0 mm 1 m/S 770 mmHg 85%
    05:00 +9°C° 0 mm 2 m/S 770 mmHg 83%
    06:00 +12°C° 0 mm 2 m/S 770 mmHg 80%
    07:00 +14°C° 0 mm 2 m/S 770 mmHg 78%
    08:00 +15°C° 0 mm 2 m/S 770 mmHg 73%
    09:00 +16°C° 0 mm 3 m/S 770 mmHg 69%
    10:00 +18°C° 0 mm 3 m/S 770 mmHg 65%
    11:00 +18°C° 0 mm 3 m/S 770 mmHg 63%
    12:00 +19°C° 0 mm 3 m/S 769 mmHg 61%
    13:00 +19°C° 0 mm 3 m/S 769 mmHg 60%
    14:00 +19°C° 0 mm 3 m/S 769 mmHg 60%
    15:00 +19°C° 0 mm 4 m/S 769 mmHg 60%
    16:00 +19°C° 0 mm 4 m/S 768 mmHg 60%
    17:00 +18°C° 0 mm 4 m/S 768 mmHg 66%
    18:00 +17°C° 0 mm 4 m/S 768 mmHg 72%
    19:00 +16°C° 0 mm 3 m/S 768 mmHg 77%
    20:00 +13°C° 0 mm 3 m/S 768 mmHg 81%
    21:00 +11°C° 0 mm 3 m/S 768 mmHg 84%
    22:00 +10°C° 0 mm 2 m/S 769 mmHg 87%
    23:00 +9°C° 0 mm 2 m/S 769 mmHg 84%

    übermorgen, 31 Mai, Sonntag

    Zeit Temperatur Niederschläge Wind Luftdruck Luftfeuchtigkeit
    00:00 +9°C° 0 mm 2 m/S 769 mmHg 80%
    01:00 +9°C° 0 mm 2 m/S 769 mmHg 77%
    02:00 +8°C° 0 mm 2 m/S 769 mmHg 79%
    03:00 +8°C° 0 mm 2 m/S 769 mmHg 80%
    04:00 +8°C° 0 mm 2 m/S 769 mmHg 82%
    05:00 +10°C° 0 mm 3 m/S 769 mmHg 81%
    06:00 +11°C° 0 mm 4 m/S 769 mmHg 79%
    07:00 +13°C° 0 mm 5 m/S 769 mmHg 78%
    08:00 +14°C° 0 mm 5 m/S 769 mmHg 74%
    09:00 +14°C° 0 mm 5 m/S 769 mmHg 70%
    10:00 +15°C° 0 mm 5 m/S 769 mmHg 66%
    11:00 +16°C° 0 mm 5 m/S 769 mmHg 64%
    12:00 +16°C° 0 mm 5 m/S 769 mmHg 62%
    13:00 +17°C° 0 mm 6 m/S 769 mmHg 60%
    14:00 +17°C° 0 mm 6 m/S 769 mmHg 60%
    15:00 +17°C° 0 mm 6 m/S 769 mmHg 59%
    16:00 +19°C° 0 mm 6 m/S 769 mmHg 59%
    17:00 +17°C° 0 mm 5 m/S 769 mmHg 64%
    18:00 +17°C° 0 mm 4 m/S 769 mmHg 69%
    19:00 +15°C° 0 mm 4 m/S 769 mmHg 74%
    20:00 +13°C° 0 mm 4 m/S 769 mmHg 76%
    21:00 +12°C° 0 mm 3 m/S 769 mmHg 78%
    22:00 +11°C° 0 mm 3 m/S 769 mmHg 79%
    23:00 +11°C° 0 mm 4 m/S 769 mmHg 80%

    1 Juni, Montag

    Zeit Temperatur Niederschläge Wind Luftdruck Luftfeuchtigkeit
    00:00 +11°C° 0 mm 4 m/S 769 mmHg 81%
    01:00 +10°C° 0 mm 4 m/S 769 mmHg 81%
    02:00 +10°C° 0 mm 4 m/S 769 mmHg 82%
    03:00 +10°C° 0 mm 4 m/S 769 mmHg 83%
    04:00 +8°C° 0 mm 5 m/S 769 mmHg 84%
    05:00 +10°C° 0 mm 5 m/S 769 mmHg 82%
    06:00 +12°C° 0 mm 5 m/S 769 mmHg 80%
    07:00 +13°C° 0 mm 5 m/S 769 mmHg 78%
    08:00 +14°C° 0 mm 5 m/S 769 mmHg 75%
    09:00 +15°C° 0 mm 5 m/S 769 mmHg 73%
    10:00 +16°C° 0 mm 5 m/S 769 mmHg 70%
    11:00 +17°C° 0 mm 5 m/S 769 mmHg 68%
    12:00 +17°C° 0 mm 5 m/S 769 mmHg 66%
    13:00 +19°C° 0 mm 6 m/S 769 mmHg 64%
    14:00 +17°C° 0 mm 5 m/S 769 mmHg 65%
    15:00 +17°C° 0 mm 5 m/S 768 mmHg 67%
    16:00 +17°C° 0 mm 5 m/S 768 mmHg 68%
    17:00 +16°C° 0 mm 5 m/S 768 mmHg 72%
    18:00 +15°C° 0 mm 5 m/S 768 mmHg 75%
    19:00 +14°C° 0 mm 5 m/S 768 mmHg 78%
    20:00 +13°C° 0 mm 4 m/S 768 mmHg 83%
    21:00 +11°C° 0 mm 4 m/S 768 mmHg 87%
    22:00 +10°C° 0 mm 4 m/S 768 mmHg 91%
    23:00 +8°C° 0 mm 4 m/S 768 mmHg 92%

    2 Juni, Dienstag

    Zeit Temperatur Niederschläge Wind Luftdruck Luftfeuchtigkeit
    00:00 +9°C° 0 mm 3 m/S 768 mmHg 93%
    01:00 +9°C° 0 mm 3 m/S 768 mmHg 93%
    02:00 +9°C° 0 mm 3 m/S 767 mmHg 94%
    03:00 +9°C° 0 mm 3 m/S 767 mmHg 94%
    04:00 +8°C° 0 mm 3 m/S 767 mmHg 95%
    05:00 +10°C° 0 mm 3 m/S 767 mmHg 90%
    06:00 +13°C° 0 mm 2 m/S 767 mmHg 86%
    07:00 +14°C° 0 mm 2 m/S 766 mmHg 81%
    08:00 +16°C° 0 mm 2 m/S 766 mmHg 76%
    09:00 +18°C° 0 mm 2 m/S 766 mmHg 72%
    10:00 +20°C° 0 mm 2 m/S 766 mmHg 67%
    11:00 +20°C° 0 mm 3 m/S 766 mmHg 65%
    12:00 +21°C° 0 mm 3 m/S 765 mmHg 63%
    13:00 +22°C° 0 mm 4 m/S 765 mmHg 60%
    14:00 +22°C° 0 mm 4 m/S 764 mmHg 61%
    15:00 +22°C° 0 mm 4 m/S 764 mmHg 62%
    16:00 +22°C° 0 mm 4 m/S 763 mmHg 63%
    17:00 +21°C° 0 mm 4 m/S 763 mmHg 69%
    18:00 +20°C° 0 mm 4 m/S 763 mmHg 74%
    19:00 +19°C° 0 mm 3 m/S 762 mmHg 80%
    20:00 +18°C° 0 mm 3 m/S 762 mmHg 83%
    21:00 +16°C° 0 mm 3 m/S 762 mmHg 86%
    22:00 +14°C° 0 mm 3 m/S 762 mmHg 89%
    23:00 +13°C° 0 mm 3 m/S 761 mmHg 89%

    3 Juni, Mittwoch

    Zeit Temperatur Niederschläge Wind Luftdruck Luftfeuchtigkeit
    00:00 +13°C° 0 mm 3 m/S 761 mmHg 89%
    01:00 +13°C° 0 mm 3 m/S 761 mmHg 90%
    02:00 +12°C° 0 mm 3 m/S 760 mmHg 90%
    03:00 +12°C° 0 mm 3 m/S 760 mmHg 90%
    04:00 +12°C° 0 mm 3 m/S 760 mmHg 90%
    05:00 +13°C° 0 mm 3 m/S 759 mmHg 86%
    06:00 +16°C° 0 mm 3 m/S 759 mmHg 81%
    07:00 +17°C° 0 mm 3 m/S 759 mmHg 77%
    08:00 +18°C° 0 mm 3 m/S 759 mmHg 72%
    09:00 +20°C° 0 mm 3 m/S 758 mmHg 68%
    10:00 +21°C° 0 mm 4 m/S 758 mmHg 64%
    11:00 +21°C° 0.3 mm 4 m/S 758 mmHg 66%
    12:00 +22°C° 0.3 mm 4 m/S 757 mmHg 68%
    13:00 +22°C° 0.3 mm 4 m/S 757 mmHg 70%
    14:00 +22°C° 1.2 mm 3 m/S 756 mmHg 72%
    15:00 +23°C° 1.2 mm 2 m/S 756 mmHg 74%
    16:00 +21°C° 1.2 mm 2 m/S 755 mmHg 75%
    17:00 +21°C° 0.5 mm 2 m/S 755 mmHg 78%
    18:00 +21°C° 0.5 mm 1 m/S 754 mmHg 80%
    19:00 +20°C° 0.5 mm 1 m/S 754 mmHg 83%
    20:00 +18°C° 0.1 mm 2 m/S 754 mmHg 86%
    21:00 +17°C° 0.1 mm 2 m/S 754 mmHg 89%
    22:00 +14°C° 0.1 mm 3 m/S 753 mmHg 92%
    23:00 +13°C° 0 mm 4 m/S 753 mmHg 93%
    Mehr zeigen